Regional Weather Roundup
Issued by NWS Charleston, WV

Home | Current Version | Previous Version | Text Only | Print | Product List | Glossary Off
Versions: 1 2 3 4 5 6 7 8 9 10 11 12 13 14 15 16 17 18 19 20 21 22 23 24 25 26 27 28

000
ASUS41 KRLX 290310
RWRRLX
West Virginia Regional Weather Roundup
National Weather Service Charleston WV
1100 PM EDT TUE MAR 28 2017

Note: "fair" indicates few or no clouds below 12,000 feet with no
significant weather and/or obstructions to visibility.

WVZ003-290400-
Northern Panhandle of West Virginia

CITY           SKY/WX    TMP DP  RH WIND       PRES   REMARKS
WHEELING       CLOUDY    47  41  80 N12       30.10R
$$

WVZ009-290400-
Northwest West Virginia

CITY           SKY/WX    TMP DP  RH WIND       PRES   REMARKS
PARKERSBURG    CLOUDY    52  45  77 N5        30.13R
$$

WVZ006-290400-
Western West Virginia

CITY           SKY/WX    TMP DP  RH WIND       PRES   REMARKS
HUNTINGTON     CLOUDY    57  51  80 NW6       30.09R
$$

WVZ015-290400-
West Central West Virginia

CITY           SKY/WX    TMP DP  RH WIND       PRES   REMARKS
CHARLESTON     CLOUDY    59  50  72 N8        30.07R
$$

WVZ022-031-290400-
North Central West Virginia

CITY           SKY/WX    TMP DP  RH WIND       PRES   REMARKS
CLARKSBURG     CLOUDY    56  49  77 N9        30.06R
MORGANTOWN     CLOUDY    53  45  74 VRB6      30.08R
$$

WVZ025-035-042-045-290400-
Southern West Virginia

CITY           SKY/WX    TMP DP  RH WIND       PRES   REMARKS
BECKLEY        LGT RAIN  53  52  96 N8        30.07R
LOGAN          CLOUDY    55  55 100 CALM      30.08R
BLUEFIELD      NOT AVBL
LEWISBURG      LGT RAIN  55  52  90 CALM      30.05R
$$

WVZ047-290400-
Northern Mountains of West Virginia

CITY           SKY/WX    TMP DP  RH WIND       PRES   REMARKS
ELKINS         CLOUDY    52  48  86 N5        30.07R
$$

WVZ052-290400-
Eastern Panhandle of West Virginia

CITY           SKY/WX    TMP DP  RH WIND       PRES   REMARKS
MARTINSBURG    CLOUDY    60  54  80 NW8       29.97R
PETERSBURG     CLOUDY    61  52  72 NE3       30.03R
$$




USA.gov is the U.S. government's official web portal to all federal, state and local government web resources and services.